Welcome to the New NWS' Forecast!
Most changes are behind the scenes, but click here for differences you might notice.

Regional Weather Roundup (RWR)

Issued by Mobile/Pensacola (MOB)

                            
649 
ASUS44 KMOB 281112
RWRMOB
REGIONAL WEATHER ROUNDUP
NATIONAL WEATHER SERVICE MOBILE AL
600 AM CDT FRI APR 28 2017

NOTE: "FAIR" INDICATES FEW OR NO CLOUDS BELOW 12,000 FEET WITH NO
      SIGNIFICANT WEATHER AND/OR OBSTRUCTIONS TO VISIBILITY.

  * THESE STATIONS ARE PART OF THE UNIVERSITY OF SOUTH ALABAMA 
    MESONET AND ARE NOT UNDER NWS OR FAA QUALITY CONTROL. 

ALZ061>064-281200-
COASTAL ALABAMA
  
CITY           SKY/WX    TMP DP  RH WIND       PRES   REMARKS
MOBILE REG APT CLOUDY    77  72  84 S12       29.88R                  
BROOKLEY FIELD CLOUDY    78  76  93 S12       29.89R                  
USA CAMPUS*      N/A     75  72  88 E3        29.88R                  
DOG RIVER*       N/A     75  73  94 S12       30.59R                  

  
CITY           SKY/WX    TMP DP  RH WIND       PRES   REMARKS
GULF SHORES    CLOUDY    75  75 100 SE16      29.89R                  

$$

ALZ051>060-281200-
INTERIOR SOUTHWEST AND SOUTH CENTRAL ALABAMA
  
CITY           SKY/WX    TMP DP  RH WIND       PRES   REMARKS
GREENVILLE     CLOUDY    72  69  90 VRB5      29.91R                  
EVERGREEN      CLOUDY    73  71  93 SE6       29.91R                  
ATMORE*          N/A     73  72  94 SE5       29.92R                  
ANDALUSIA/OPP  CLOUDY    74  71  91 E3        29.93R FOG              
ANDALUSIA*       N/A     72  72 100 E2        29.94R                  
FLORALA APT    CLOUDY    73  70  90 S8        29.95R                  
FLORALA*         N/A     73  72  94 CALM      30.62R                  

$$

FLZ001>006-281200-
WESTERN FLORIDA PANHANDLE
  
CITY           SKY/WX    TMP DP  RH WIND       PRES   REMARKS
PENSACOLA      CLOUDY    77  73  87 S14       29.90R                  
NAS PENSACOLA  CLOUDY    76  73  91 S14       29.90R FOG              
MILTON         CLOUDY    75  73  93 S15G22    29.91                   
WHTNG S FIELD  CLOUDY    78  75  90 S14       29.91R                  

  
CITY           SKY/WX    TMP DP  RH WIND       PRES   REMARKS
JAY*             N/A     73  72  94 S10       29.91R                  
DUKE FIELD     CLOUDY    74  72  93 S13       29.92R                  
CRESTVIEW      CLOUDY    75  72  90 S7        29.94R                  
VALPARAISO     CLOUDY    74  73  96 S12       29.93R FOG              
DESTIN         CLOUDY    77  77 100 SE12      29.93R                  

$$

MSZ076-079-281200-
INTERIOR SOUTHEAST MISSISSIPPI
  
CITY           SKY/WX    TMP DP  RH WIND       PRES   REMARKS
LEAKESVILLE*   NOT AVBL                                               
AGRICOLA*        N/A     75  73  94 CALM      29.86R                  

$$

MARINE OBSERVATIONS
  
STATION/POSITION TIME  TEMP    WIND        PRES    WAVE
                       AIR SEA DIR/SP/G            HT/PER
                 (UTC) (F)     (DEG/KT/KT) (MB)    (FT/S)
PASCAGOULA       1048   76     160/ 15/ 20 1011.2R
PETIT BOIS ISLND 1048   76     160/ 14/ 18 1012.0R
GRAND BAY        0945   76     160/ 14     1011.0S
KATRINA CUT      1030   76     160/ 17     1011.2R
CEDAR POINT      1030   76     170/ 17     1011.5R
E DAUPHIN ISLAND 1000   76     150/ 19/ 20 1010.8R
MIDDLE BAY LIGHT 1030   76     160/ 21     1011.9R
USCG MOBILE BAY  1048   76 76  180/ 14/ 20 1012.2R
STATE DOCKS      1048   76 76              1011.7R
MEAHER PARK      1030   76     160/ 12     1011.5R
FORT MORGAN      1048   76     160/ 19/ 21   N/A
12 S ORANGE BCH  1050   75 75  150/ 16/ 19 1011.8R   4/ 7
PENSACOLA BAY    1048   76 76  180/  9/ 14 1012.9R
64 S DAUPHIN ISL 1050   76 76  150/ 17/ 21 1011.3R   4/ 8
67 S FORT MORGAN 1030   75     160/ 19     1011.5R

$$

SELECTED LOCATIONS ACROSS THE REGION
  
CITY           SKY/WX    TMP DP  RH WIND       PRES   REMARKS
NEW ORLEANS    CLOUDY    78  74  87 SE16      29.80R                  
GULFPORT       CLOUDY    78  75  90 S14       29.84R                  
PASCAGOULA AP  CLOUDY    77  73  87 S10       29.86R                  
PASCAGOULA*    NOT AVBL                                               
HATTIESBURG    CLOUDY    73  71  93 SE6       29.84S                  
LAUREL         CLOUDY    72  70  94 SE6       29.84R                  
MERIDIAN       CLOUDY    72  70  93 S10       29.86R                  
JACKSON        CLOUDY    68  66  93 SE10      29.81S                  
MONTGOMERY     MOCLDY    73  68  84 SE5       29.93R                  
TROY           PTCLDY    71  71 100 SE5       29.94R                  
ASHFORD*         N/A     72  72 100 E2        29.94R                  
DOTHAN         MOCLDY    72  72 100 S8        29.99R                  
PANAMA CITY    CLOUDY    74  72  93 SE8       29.94R                  

$$